Wind_Speed
38 38 39 39 38 38 38 38 37 37 36 36 36 36 36 36 36 36 37 38 38 38 38 38 37 36 36 36 36 35 34 35 35 34 34 34 34 34 35 35 35 35 36
42 42 42 42 41 41 40 40 39 37 37 37 37 36 35 35 35 35 34 35 35 36 35 35 35 35 34 34 34 33 33 33 33 34 34 34 33 33 33 34 35 37 37
46 45 45 44 43 43 42 41 40 38 37 37 36 35 34 33 33 33 32 31 31 31 30 31 31 31 32 32 32 32 32 32 33 33 34 34 34 33 33 33 34 36 36
50 49 47 46 45 44 43 42 41 39 38 37 36 35 33 32 31 29 28 27 26 26 26 26 27 27 28 29 29 29 29 29 30 31 32 32 32 32 32 31 31 32 31
54 52 50 49 48 46 45 43 42 40 38 36 35 34 32 31 29 28 26 24 23 23 22 23 23 23 23 24 24 23 25 27 27 27 28 29 29 30 29 29 28 28 26
57 55 54 53 50 48 46 44 42 40 38 36 35 33 31 29 27 26 24 22 20 19 18 17 18 20 20 20 21 21 22 23 25 26 27 27 26 26 25 25 24 24 23
61 59 57 55 53 50 48 45 42 40 38 35 34 31 29 27 26 24 21 20 18 17 15 15 16 17 18 18 19 19 20 20 22 24 24 23 22 20 19 18 18 18 20
64 62 60 57 54 51 49 45 42 40 38 35 32 29 28 26 23 20 19 18 16 15 15 14 14 15 15 16 16 17 19 19 20 21 20 19 17 15 14 14 15 16 18
65 62 59 56 53 49 47 44 41 39 37 35 31 28 25 23 21 19 17 16 15 14 14 13 14 14 15 16 17 17 19 18 16 16 15 14 13 11 10 11 11 12 13
60 57 55 52 49 46 44 42 40 38 37 35 32 28 25 22 20 18 16 14 14 13 13 14 14 15 16 17 16 17 18 16 14 13 12 11 10 8 8 8 9 10 12
55 53 51 48 46 44 42 41 40 38 36 35 32 28 24 21 18 16 15 13 12 12 12 13 13 14 14 14 14 14 13 13 12 11 10 9 8 7 7 7 8 9 11
50 48 46 45 43 42 41 41 40 40 36 35 32 27 25 22 18 16 15 13 12 12 12 12 13 13 13 13 13 13 12 12 12 11 10 9 7 7 6 6 7 9 11
43 42 41 41 40 40 41 41 40 39 38 35 31 28 25 22 19 17 15 14 13 13 13 13 13 14 14 14 13 13 13 12 11 10 9 8 7 6 6 6 8 10 12
39 39 38 38 38 38 39 40 41 39 37 35 32 29 25 23 20 18 16 15 14 13 14 15 14 14 14 14 13 13 12 11 10 9 8 7 6 6 6 7 9 11 13
38 36 36 35 35 35 37 38 39 40 37 34 33 30 27 24 22 19 17 16 15 15 16 16 16 15 14 14 14 13 11 10 9 8 7 7 7 7 7 9 11 13 14
36 35 34 31 31 32 34 37 38 38 38 34 34 31 28 26 24 21 19 18 17 17 17 17 16 16 15 14 13 12 11 10 9 8 8 8 8 8 9 10 12 14 15
33 32 31 29 28 28 31 34 37 36 37 35 33 31 29 27 25 23 21 19 19 18 18 18 17 16 15 14 13 12 11 11 10 9 9 9 9 10 11 12 14 15 17
32 29 27 24 23 23 25 31 35 35 37 35 33 32 30 28 27 25 22 21 20 19 19 19 18 17 16 14 13 13 12 12 11 11 11 11 11 12 13 14 15 17 18
30 26 23 20 18 19 24 29 33 36 37 36 35 33 31 29 27 26 24 22 22 21 20 19 18 17 16 15 14 13 13 13 12 12 12 12 13 14 14 16 17 18 19
26 21 17 15 16 19 25 29 34 36 36 35 34 33 31 28 26 24 24 23 22 21 21 19 18 17 16 16 15 14 14 13 13 14 14 14 15 15 16 17 18 19 20
19 15 13 14 17 21 26 30 34 36 35 34 34 33 31 29 27 26 25 23 22 21 20 19 18 17 17 16 16 15 15 15 15 15 16 16 17 17 18 19 20 21 21
13 12 12 15 19 24 27 30 34 35 34 34 33 33 31 30 28 26 24 23 22 21 20 19 18 17 17 17 17 17 17 17 17 18 18 18 18 19 20 21 21 21 21
9 10 14 18 21 25 29 32 33 33 33 34 32 30 29 27 26 24 23 22 21 20 19 18 17 17 17 17 17 17 18 18 19 19 19 19 20 20 21 21 22 22 22
9 12 17 21 23 27 30 30 31 32 32 33 30 29 28 26 25 24 23 21 20 19 18 17 17 17 17 17 18 18 19 19 20 20 20 20 21 21 21 22 23 23 23
11 16 20 24 26 29 30 30 31 31 30 31 29 28 27 25 24 23 21 20 19 18 17 17 17 17 18 18 19 19 20 20 20 20 20 20 21 21 22 23 23 23 24
16 21 24 26 28 29 30 30 30 30 29 29 28 27 25 23 22 21 19 18 17 17 16 16 17 17 18 18 19 19 19 20 20 20 20 20 21 22 22 23 23 23 24
Wind_Direction
302 303 304 304 304 305 305 306 306 306 306 304 302 299 295 291 288 284 280 276 272 270 268 266 265 264 261 260 258 255 253 252 251 249 248 246 246 246 246 246 246 244 244
301 301 302 302 302 303 304 304 304 305 305 304 303 301 298 294 291 288 283 277 273 270 268 265 262 261 259 256 253 250 249 248 246 245 243 242 245 245 246 247 247 246 245
299 299 299 299 299 299 300 301 301 302 303 304 303 301 300 297 293 291 287 279 275 270 267 264 260 257 255 253 250 247 245 243 242 241 240 242 244 246 246 247 247 246 247
296 296 296 296 296 296 297 298 298 299 300 301 301 301 300 298 295 293 290 282 276 270 267 263 258 255 251 248 246 244 241 238 235 236 237 238 240 243 244 245 246 247 248
294 294 293 293 293 293 293 295 295 295 297 298 298 299 299 298 295 293 292 285 277 271 266 263 258 250 246 245 242 238 236 234 232 232 234 236 239 242 243 244 245 246 248
292 291 291 291 290 290 289 290 290 290 292 293 295 296 297 297 296 294 291 286 277 269 264 261 253 244 240 237 235 234 232 232 231 231 233 236 239 241 242 243 244 246 250
291 290 289 288 287 286 285 285 285 285 286 288 290 292 293 294 294 292 287 283 277 269 263 259 249 240 235 229 227 224 228 231 233 231 231 232 235 236 235 238 244 249 255
290 289 288 286 284 282 280 278 278 278 280 281 282 285 288 288 288 286 282 279 275 264 256 254 242 236 233 223 224 223 225 228 227 226 226 226 226 227 233 240 247 254 259
288 287 286 284 281 277 274 272 270 270 272 274 275 278 280 282 282 279 274 271 267 257 249 241 232 229 223 222 224 223 222 219 217 215 215 217 217 220 228 239 250 259 267
287 286 284 280 275 272 268 265 261 261 263 265 266 269 270 274 275 273 268 264 255 246 240 233 229 226 220 217 218 216 212 209 205 201 200 202 203 212 228 245 259 269 277
287 286 282 277 272 267 263 258 254 252 255 256 257 260 260 262 263 261 257 256 248 239 231 226 223 216 208 203 200 196 194 193 189 187 189 193 200 215 233 252 265 276 286
287 285 281 274 269 263 257 252 247 244 246 247 247 250 250 250 249 248 244 239 233 226 223 220 209 197 192 186 180 179 179 177 176 177 184 193 205 220 236 254 276 292 299
287 284 280 273 267 262 255 248 242 240 240 238 239 240 239 239 238 239 235 229 223 218 214 207 196 186 179 176 174 175 173 171 174 181 189 197 210 225 245 270 290 301 307
289 285 279 273 266 261 253 244 238 233 233 229 229 230 229 228 228 228 226 219 213 207 202 197 189 181 178 176 175 174 173 177 181 187 195 209 223 242 265 283 295 304 313
291 286 281 275 266 259 249 240 233 226 223 222 222 222 220 219 220 218 214 210 207 201 196 191 186 182 181 181 181 182 184 189 195 202 214 228 242 259 275 289 298 307 315
293 288 282 276 268 258 247 236 227 220 216 217 216 214 212 213 212 209 209 206 201 196 192 190 189 188 188 188 189 192 196 202 210 219 231 245 257 270 283 294 302 309 315
296 289 281 275 266 253 240 228 217 211 208 208 210 209 208 208 207 205 205 203 199 197 195 194 194 194 195 197 199 204 209 217 226 235 247 258 268 278 288 296 303 308 313
296 290 281 273 258 243 228 214 207 201 200 203 204 203 203 203 203 202 202 201 200 199 199 199 200 201 203 206 210 215 222 231 240 248 257 265 273 281 290 296 302 307 312
296 288 278 265 245 226 211 203 199 196 197 197 198 199 199 199 201 202 201 201 201 202 203 204 206 208 211 215 220 225 233 241 249 257 264 271 278 284 291 297 302 306 311
293 283 269 245 221 206 199 195 191 190 191 192 193 195 195 197 198 199 200 202 204 206 207 209 211 215 218 222 227 233 241 248 256 262 268 275 282 287 293 297 301 305 309
286 270 247 221 202 195 192 189 188 188 188 189 191 193 193 194 196 198 200 203 205 207 210 213 216 220 225 230 235 241 248 255 262 268 273 278 284 289 294 297 300 303 307
270 243 220 201 192 188 185 183 184 185 185 187 188 190 192 194 197 199 202 204 206 209 212 215 220 226 232 238 243 249 253 260 266 272 276 280 285 288 292 296 299 302 305
241 215 199 190 185 184 181 180 182 181 182 183 184 188 192 194 197 200 202 205 208 211 216 221 227 233 239 244 250 255 259 264 270 274 277 281 284 287 290 294 298 301 303
213 196 185 179 176 176 176 178 179 178 180 181 183 186 190 193 196 200 203 205 209 215 221 227 233 239 245 250 255 259 263 269 273 277 279 280 282 285 289 293 296 299 302
186 177 172 168 166 168 171 174 176 177 180 182 184 187 191 194 197 200 204 207 212 218 225 231 238 245 251 255 258 262 266 271 275 277 279 279 282 285 288 291 294 297 301
166 164 161 159 161 164 167 169 173 177 179 181 184 186 190 194 197 200 204 209 216 222 229 237 244 250 255 258 261 265 269 273 275 277 279 280 283 287 289 291 294 297 300
Height
5772 5768 5764 5761 5757 5754 5750 5746 5742 5738 5734 5730 5725 5721 5718 5714 5711 5709 5707 5706 5706 5706 5706 5707 5708 5709 5711 5712 5714 5717 5719 5722 5725 5728 5731 5733 5736 5738 5741 5743 5746 5747 5750
5761 5758 5754 5751 5747 5744 5740 5737 5733 5729 5725 5720 5716 5712 5708 5705 5701 5699 5697 5695 5694 5694 5695 5695 5696 5698 5700 5701 5703 5706 5709 5712 5715 5718 5721 5724 5727 5730 5732 5735 5737 5739 5741
5750 5747 5744 5740 5737 5734 5730 5727 5723 5719 5715 5711 5707 5703 5699 5696 5692 5689 5686 5685 5684 5683 5684 5684 5686 5687 5689 5691 5694 5696 5699 5703 5706 5710 5713 5716 5719 5722 5724 5727 5729 5731 5733
5738 5735 5732 5729 5726 5723 5719 5716 5713 5710 5706 5702 5698 5695 5691 5687 5684 5681 5678 5676 5675 5675 5675 5675 5676 5678 5679 5682 5685 5688 5691 5694 5698 5701 5704 5707 5711 5714 5717 5719 5721 5724 5726
5724 5721 5718 5716 5713 5711 5708 5705 5702 5699 5696 5693 5690 5686 5683 5679 5676 5673 5671 5669 5667 5667 5667 5667 5669 5670 5672 5674 5677 5680 5684 5687 5691 5694 5697 5700 5704 5707 5709 5712 5715 5717 5719
5708 5706 5704 5701 5699 5697 5695 5694 5691 5689 5686 5684 5681 5678 5675 5672 5669 5667 5665 5663 5661 5661 5661 5661 5662 5663 5666 5668 5672 5675 5678 5681 5684 5688 5691 5694 5697 5700 5703 5706 5709 5711 5714
5691 5688 5686 5685 5684 5683 5681 5680 5679 5678 5676 5674 5672 5670 5668 5665 5663 5660 5659 5658 5657 5656 5656 5657 5658 5659 5661 5663 5666 5669 5672 5676 5679 5683 5686 5689 5692 5695 5697 5700 5703 5706 5708
5672 5669 5667 5666 5666 5666 5666 5666 5666 5665 5665 5664 5663 5661 5660 5658 5657 5655 5654 5653 5652 5652 5652 5653 5655 5656 5657 5660 5663 5666 5669 5671 5674 5678 5681 5684 5687 5690 5693 5696 5699 5701 5702
5651 5649 5647 5646 5646 5647 5648 5649 5651 5652 5653 5653 5653 5653 5652 5652 5651 5650 5649 5649 5649 5649 5649 5650 5652 5654 5655 5658 5660 5663 5665 5668 5671 5674 5677 5681 5684 5687 5690 5692 5695 5696 5697
5629 5627 5626 5625 5626 5628 5630 5633 5635 5638 5640 5642 5643 5644 5645 5645 5645 5645 5644 5644 5645 5645 5646 5647 5649 5651 5652 5655 5657 5660 5663 5666 5669 5672 5675 5678 5681 5684 5687 5689 5690 5692 5692
5607 5606 5605 5605 5607 5609 5613 5616 5620 5624 5627 5630 5633 5635 5636 5638 5639 5640 5640 5640 5641 5642 5643 5645 5646 5648 5650 5652 5655 5658 5661 5664 5667 5670 5674 5677 5679 5682 5684 5685 5686 5687 5687
5586 5585 5585 5585 5587 5591 5595 5599 5604 5609 5613 5618 5622 5625 5628 5631 5633 5634 5636 5637 5638 5640 5641 5643 5644 5646 5649 5651 5654 5657 5660 5663 5666 5669 5672 5675 5677 5679 5681 5682 5683 5683 5682
5568 5567 5567 5567 5569 5572 5576 5582 5587 5593 5600 5606 5611 5616 5620 5623 5626 5629 5631 5633 5635 5637 5639 5641 5643 5645 5648 5650 5653 5656 5659 5662 5665 5668 5671 5673 5675 5676 5678 5678 5678 5678 5677
5553 5551 5551 5551 5552 5555 5559 5565 5572 5579 5587 5594 5601 5607 5612 5616 5620 5623 5626 5629 5631 5634 5637 5639 5642 5644 5647 5650 5653 5656 5659 5662 5664 5666 5669 5671 5672 5673 5674 5674 5674 5673 5672
5539 5537 5536 5536 5537 5539 5544 5550 5558 5566 5575 5583 5591 5598 5604 5610 5614 5618 5621 5625 5628 5631 5634 5637 5640 5643 5647 5649 5652 5655 5658 5660 5663 5665 5667 5668 5669 5670 5671 5670 5670 5669 5667
5526 5524 5522 5522 5523 5525 5530 5537 5545 5554 5564 5572 5581 5589 5597 5602 5608 5613 5617 5621 5625 5629 5632 5635 5638 5642 5645 5648 5651 5653 5656 5658 5660 5662 5664 5665 5666 5666 5667 5666 5665 5664 5662
5513 5511 5510 5510 5510 5512 5517 5524 5534 5544 5554 5563 5573 5582 5589 5596 5603 5608 5613 5618 5622 5626 5630 5633 5636 5640 5643 5646 5649 5651 5654 5656 5658 5659 5660 5661 5662 5662 5662 5661 5660 5659 5657
5502 5500 5499 5499 5500 5503 5508 5516 5525 5535 5546 5556 5566 5575 5583 5591 5597 5603 5609 5614 5619 5623 5627 5630 5634 5637 5640 5643 5646 5649 5651 5653 5654 5655 5656 5657 5657 5657 5657 5657 5656 5654 5652
5491 5490 5489 5490 5492 5496 5502 5510 5520 5530 5540 5550 5560 5570 5578 5586 5593 5599 5605 5611 5615 5620 5624 5627 5631 5634 5637 5640 5643 5645 5647 5649 5650 5651 5652 5653 5653 5653 5652 5651 5650 5649 5647
5482 5481 5482 5484 5487 5492 5499 5507 5516 5526 5536 5546 5557 5566 5575 5583 5590 5596 5602 5607 5612 5616 5621 5624 5628 5631 5634 5637 5640 5642 5644 5645 5646 5647 5648 5648 5648 5648 5647 5646 5645 5643 5641
5474 5474 5476 5479 5484 5490 5498 5506 5515 5524 5534 5544 5554 5563 5572 5580 5586 5592 5598 5603 5608 5613 5617 5621 5625 5628 5631 5633 5636 5638 5639 5641 5642 5642 5643 5643 5643 5642 5641 5640 5639 5637 5635
5468 5470 5473 5477 5483 5490 5497 5505 5514 5523 5533 5543 5552 5560 5568 5576 5583 5589 5595 5600 5605 5610 5614 5618 5621 5624 5627 5629 5631 5633 5635 5636 5637 5637 5637 5637 5637 5636 5635 5634 5632 5631 5629
5464 5468 5472 5477 5483 5490 5497 5506 5514 5523 5533 5542 5551 5559 5567 5575 5581 5587 5592 5598 5602 5607 5611 5614 5618 5620 5623 5625 5627 5628 5629 5630 5631 5631 5631 5631 5631 5630 5629 5627 5626 5624 5622
5462 5466 5471 5476 5483 5491 5499 5507 5516 5525 5533 5543 5551 5559 5566 5573 5579 5585 5590 5595 5600 5604 5608 5611 5614 5616 5618 5620 5622 5623 5624 5624 5625 5625 5625 5625 5624 5623 5622 5621 5619 5618 5616
5461 5465 5471 5478 5485 5493 5501 5510 5518 5527 5535 5543 5550 5558 5565 5571 5577 5583 5588 5593 5597 5601 5604 5607 5610 5612 5613 5615 5616 5617 5618 5618 5618 5618 5618 5618 5617 5616 5615 5614 5612 5611 5608
5461 5467 5474 5481 5488 5496 5504 5513 5521 5529 5536 5544 5551 5558 5564 5570 5576 5582 5586 5591 5594 5598 5601 5603 5605 5607 5608 5609 5610 5611 5611 5612 5612 5611 5611 5611 5610 5609 5608 5607 5605 5603 5601